Find Starlink 4049

NORAD ID: 52840 Int'l Des: 2022-062 Owner: SPXS Country: US Constellation: starlink operational
LEOCIRCULAR

Live-Position

3D-Globus wird geladen...

Über Starlink 4049

Beschreibung wird geladen...

Nächste Überflüge

Passes for default location (London). Set your location on the main map for personalized predictions.

Höhenverlauf

Loading altitude history...

Zweizeiliger Elementsatz

1 52840U 22062L 26124.26606998 .00002908 00000-0 12696-3 0 9998
2 52840 53.2154 141.2920 0000778 57.8427 302.2648 15.25394112214224
Epoch: 4. Mai 2026 • Age: 18 hours

Aktueller Status

Höhe 507.8 km
Geschwindigkeit 7.61 km/s
Subsatellitenpunkt -51.07°S, 149.87°E
Startdatum 17. Juni 2022
Alter 3.8 years
Typ internet

Technische Details

Klassifizierung Payload
Masse 297.00 kg
Trockenmasse 275.00 kg
Gesamtmasse 297.00 kg
Länge 0.20 m
Durchmesser 2.80 m
Spannweite 9.00 m
Form Box + pan
Hersteller SPXS
Bus-Typ Starlink
Phasenstatus In Orbit
Besitzer/Staat SPXS/US

Most Searched